Location: Azul
(36.7830°S, 59.8500°W)
Time: 08:59:37
(UTC-03:00)

Oscar 19 - Visible Passes

Search period start: 22 October 2021 00:00
Search period end: 01 November 2021 00:00
Orbit: 773 x 790 km, 98.8° (Epoch: 21 October)

Date Brightness Start Highest point End Pass type
(mag) Time Alt. Az. Time Alt. Az. Time Alt. Az.
22 Oct 11.3 03:14:44 50° S 03:14:44 50° S 03:18:35 10° SSW visible
23 Oct 11.9 02:42:13 38° SE 02:42:13 38° SE 02:46:22 10° S visible
23 Oct 12.3 04:22:45 18° WSW 04:22:45 18° WSW 04:24:51 10° SW visible
24 Oct 12.8 02:09:42 21° ESE 02:09:49 21° ESE 02:13:37 10° SSE visible
24 Oct 11.5 03:50:15 35° WSW 03:50:15 35° WSW 03:53:44 10° SSW visible
25 Oct 13.5 01:37:45 10° ESE 01:38:19 10° ESE 01:38:54 10° SE visible
25 Oct 11.0 03:17:43 61° S 03:17:43 61° S 03:22:00 10° SSW visible
26 Oct 11.7 02:45:13 43° ESE 02:45:13 43° ESE 02:49:50 10° S visible
26 Oct 12.2 04:25:45 18° WSW 04:25:45 18° WSW 04:28:08 10° SW visible
27 Oct 12.7 02:12:43 22° ESE 02:13:13 22° ESE 02:17:10 10° SSE visible
27 Oct 11.4 03:53:15 37° WSW 03:53:15 37° WSW 03:57:08 10° SSW visible
28 Oct 13.4 01:40:18 10° ESE 01:41:41 11° ESE 01:43:05 10° SE visible
28 Oct 10.7 03:20:44 71° SSW 03:20:44 71° SSW 03:25:26 10° SSW visible
29 Oct 11.5 02:48:14 46° ESE 02:48:19 46° ESE 02:53:19 10° S visible
29 Oct 12.2 04:28:46 18° W 04:28:46 18° W 04:31:24 10° SW visible
30 Oct 12.6 02:15:44 23° E 02:16:36 24° ESE 02:20:41 10° SSE visible
30 Oct 11.3 03:56:16 37° W 03:56:16 37° W 04:00:30 10° SSW visible
31 Oct 13.4 01:43:14 10° E 01:45:04 12° ESE 01:46:56 10° SE visible
31 Oct 10.5 03:23:46 79° WSW 03:23:46 79° WSW 03:28:51 10° SSW visible
